AirNav   Everest Fuels
 
 279 users online  

1MI2 Guardian Industries Heliport
Auburn Hills, Michigan, USA

GOING TO AUBURN HILLS?


FAA INFORMATION EFFECTIVE 18 JUNE 2020

Location

FAA Identifier: 1MI2
Lat/Long: 42-41-59.1150N 083-14-50.7720W
42-41.985250N 083-14.846200W
42.6997542,-83.2474367
(estimated)
Elevation: 1021 ft. / 311 m (estimated)
Variation: 06W (1990)
From city: 4 miles NW of AUBURN HILLS, MI
Time zone: UTC -4 (UTC -5 during Standard Time)
Zip code: 48326

Heliport Operations

Heliport use: Private use. Permission required prior to landing
Activation date: 08/1994
Control tower: no
ARTCC: CLEVELAND CENTER
FSS: LANSING FLIGHT SERVICE STATION
Attendance: UNATNDD
Segmented circle: no

Heliport Communications

WX ASOS at PTK (8 nm W): 125.025 (248-886-8551)
WX AWOS-3 at VLL (10 nm S): 119.475 (248-288-4649)

Nearby radio navigation aids

VOR radial/distance  VOR name  Freq  Var
SVMr044/23.2SALEM VORTAC114.3003W
FNTr132/27.2FLINT VORTAC116.9006W
DXOr016/29.7DETROIT VOR/DME113.4006W

 
NDB name  Hdg/Dist  Freq  Var  ID
GROSSE ILE000/36.241907WRYS .-. -.-- ...

Heliport Services

Runway Information

Helipad H1

Dimensions: 64 x 64 ft. / 20 x 20 m
Surface: concrete
Traffic pattern: leftleft

Heliport Ownership and Management from official FAA records

Ownership: Privately-owned
Owner: GUARDIAN INDUSTRIES CORP
29840 NORTHLINE RD.
ROMULS, MI 48174
Phone 734-941-5822

Additional Remarks

A52-H1 300 FT TWR 300 FT N.
FOR CD CTC DETROIT APCH AT 800-499-8181.

Instrument Procedures

There are no published instrument procedures at 1MI2.

Some nearby airports with instrument procedures:

KPTK - Oakland County International Airport (8 nm W)
KVLL - Oakland/Troy Airport (10 nm S)
D98 - Romeo State Airport (13 nm NE)
57D - Ray Community Airport (16 nm E)
KMTC - Selfridge Air National Guard Base (19 nm E)
 
Loc | Ops | Rwys | IFR | FBO | Links
Com | Nav | Svcs | Stats | Notes
Area around 1MI2 (Guardian Industries Heliport)
 
Road maps at: MapQuest Bing Google
 
Aerial photo
No photo
 
Sectional chart

 
Airport distance calculator
Flying to Guardian Industries Heliport? Find the distance to fly.

From to 1MI2

Sunrise and sunset
Times for 15-Jul-2020
 Local
(UTC-4)
 Zulu
(UTC)
Morning civil twilight05:3609:36
Sunrise06:1010:10
Sunset21:0801:08
Evening civil twilight21:4201:42

Current date and time
Zulu (UTC)  15-Jul-2020 08:31:10
Local (UTC-4)  15-Jul-2020 04:31:10
 
METAR
KPTK 
8nm W 
150753Z AUTO 14003KT 10SM CLR 21/17 A3008 RMK AO2 SLP179 T02060167 $
KVLL 
10nm S 
150815Z AUTO 00000KT 10SM CLR 21/18 A3010 RMK AO2 T02070177
KMTC 
20nm E 
150756Z AUTO 00000KT 10SM CLR 20/20 A3008 RMK AO2 SLP187 T02020202
TAF
KPTK 
8nm W 
150520Z 1506/1606 16003KT P6SM BKN200 FM151400 19007KT P6SM SCT250 FM152100 17007KT P6SM SCT050 OVC200
KMTC 
20nm E 
150100Z 1501/1607 17006KT 9999 FEW150 SCT250 QNH3001INS BECMG 1605/1606 13006KT 9999 FEW050 SCT200 QNH3000INS TX30/1520Z TN20/1509Z LAST NO AMDS AFT 1503 NEXT 1509
NOTAMs
Click for the latest NOTAMs
NOTAMs are issued by the DoD/FAA and will open in a separate window not controlled by AirNav.

 

 
 

Would you like to see your business listed on this page?

 If your business provides an interesting product or service to pilots, flight crews, aircraft, or users of the Guardian Industries Heliport, you should consider listing it here.  To start the listing process, click on the button below
 
Add a business
 

Other Pages about Guardian Industries Heliport

Update a link
 
Copyright © AirNav, LLC. All rights reserved. Privacy Policy  Contact